[[{"header":{"parameterUnit":"m.s-1","parameterCategory":1,"la1":30.2991,"la2":30.254,"lo1":-89.0895,"lo2":-89.0444,"dy":0.0017,"dx":0.0017,"nx":28,"ny":28,"refTime":"2025-04-05T09:00:00:Z","depth":0,"parameterNumber":2,"parameterNumberName":"U-component_of_WINDS"},"data":[0,0,0,0,0,0,0,0,0,0,0,0,0,0,0,0,0,0,0,0,0,0,0,0,0,0,0,0,0,0,0,0,0,0,0,0,0,0,0,0,0,0,0,0,0,0,0,0,0,0,0,0,0,0,0,0,0,0,-3.0498,-3.0499,0,-3.0591,-3.0592,-3.0593,-3.062,-3.062,-3.0619,-3.0619,-3.0712,-3.0715,-3.0718,0,0,0,0,0,0,0,0,0,0,0,0,0,-3.0343,-3.0346,-3.0498,-3.0499,-3.05,-3.0591,-3.0592,-3.0593,-3.062,-3.062,-3.0619,-3.0618,-3.0711,-3.0715,-3.0718,0,0,0,0,0,0,0,0,0,0,0,0,0,-3.0421,-3.0347,-3.0498,-3.0525,-3.0528,-3.059,-3.0592,-3.0593,-3.062,-3.0619,-3.0619,-3.0618,-3.071,-3.0714,-3.0719,-3.076,0,0,-3.0732,-3.0734,0,0,0,0,0,0,0,0,-3.0416,-3.0426,-3.0519,-3.0523,-3.0527,-3.0593,-3.0572,-3.0649,-3.062,-3.0585,-3.0619,-3.0618,-3.0673,-3.068,-3.0699,-3.0765,-3.0769,-3.0732,-3.0735,-3.0737,-3.0738,0,0,0,0,0,0,0,-3.0411,-3.0422,-3.0535,-3.0521,-3.0525,-3.0532,-3.0542,-3.0587,-3.0632,-3.0588,-3.059,-3.0601,-3.0675,-3.0695,-3.0702,-3.077,-3.0732,-3.0736,-3.0739,-3.0741,-3.0875,-3.0876,0,0,0,0,0,0,-3.0401,-3.0418,-3.0532,-3.0537,-3.0469,-3.0535,-3.0547,-3.0572,-3.0632,-3.064,-3.0602,-3.0602,-3.0688,-3.0697,-3.0705,-3.0758,-3.0737,-3.0741,-3.0744,-3.0874,-3.0876,-3.0877,0,0,0,0,0,0,-3.0398,-3.0411,-3.0528,-3.0478,-3.0494,-3.0539,-3.0567,-3.0575,-3.0595,-3.0642,-3.065,-3.0614,-3.0688,-3.0699,-3.0747,-3.0762,-3.0743,-3.0747,-3.0873,-3.0875,-3.0876,-3.0864,0,0,0,0,0,0,-3.0393,-3.0409,-3.0426,-3.0478,-3.0496,-3.0568,-3.0568,-3.0577,-3.0603,-3.0604,-3.0655,-3.0663,-3.0688,-3.074,-3.0751,-3.0767,-3.0751,-3.0872,-3.0874,-3.0876,-3.0863,-3.0865,-3.0866,0,0,0,0,0,-3.0387,-3.0418,-3.0427,-3.044,-3.0518,-3.0569,-3.0579,-3.0607,-3.0604,-3.062,-3.0651,-3.0662,-3.0759,-3.0745,-3.0757,-3.0775,-3.0871,-3.0873,-3.0875,-3.0862,-3.0864,-3.0866,0,0,0,0,0,0,-3.0365,-3.0426,-3.0435,-3.0484,-3.0521,-3.0573,-3.0595,-3.0608,-3.0646,-3.0646,-3.0679,-3.069,-3.0736,-3.0761,-3.0744,-3.0819,-3.0815,-3.082,-3.0801,-3.0803,-3.0805,-3.0797,-3.0754,0,0,0,0,0,-3.0367,-3.0403,-3.0454,-3.0492,-3.051,-3.055,-3.0573,-3.0592,-3.0631,-3.0647,-3.068,-3.0718,-3.0757,-3.0782,-3.082,-3.0868,-3.0879,-3.0886,-3.0888,-3.0889,-3.0892,-3.0919,-3.0923,-3.0883,-3.0883,-3.0883,0,0,-3.0369,-3.0406,-3.0427,-3.0489,-3.0519,-3.0557,-3.0562,-3.0601,-3.0629,-3.0652,-3.0699,-3.0726,-3.077,-3.0818,-3.084,-3.084,-3.0906,-3.0891,-3.0892,-3.0894,-3.0921,-3.0925,-3.0928,-3.0885,-3.0885,-3.0884,0,0,-3.0391,-3.0423,-3.0459,-3.049,-3.0537,-3.0563,-3.0572,-3.0622,-3.0641,-3.0689,-3.0707,-3.0741,-3.0807,-3.0838,-3.0863,-3.0899,-3.091,-3.091,-3.0917,-3.0943,-3.0946,-3.0949,-3.0961,-3.0966,-3.0914,-3.0914,-3.0914,0,-3.0387,-3.0444,-3.0475,-3.0514,-3.054,-3.0564,-3.06,-3.0629,-3.0686,-3.0703,-3.0702,-3.0787,-3.0818,-3.0873,-3.0882,-3.0902,-3.0912,-3.0904,-3.0943,-3.0947,-3.095,-3.0962,-3.0966,-3.0913,-3.0913,-3.0913,-3.0913,0,-3.0438,-3.0477,-3.05,-3.0555,-3.0584,-3.0621,-3.0658,-3.0684,-3.07,-3.0727,-3.0776,-3.0815,-3.0861,-3.0876,-3.0893,-3.0934,-3.0932,-3.0937,-3.0933,-3.0953,-3.0965,-3.097,-3.0913,-3.0913,-3.0913,-3.0913,0,0,-3.0447,-3.052,-3.0528,-3.0553,-3.0608,-3.0639,-3.0677,-3.0724,-3.0745,-3.0784,-3.0817,-3.0873,-3.0878,-3.0906,-3.0926,-3.0949,-3.0975,-3.0951,-3.0952,-3.0953,-3.1023,-3.1018,-3.1023,-3.0983,-3.0984,-3.0985,-3.1019,0,-3.0476,-3.0546,-3.0575,-3.0631,-3.0668,-3.0692,-3.0725,-3.0762,-3.0788,-3.0823,-3.0852,-3.0891,-3.0895,-3.0912,-3.0936,-3.0966,-3.0989,-3.0965,-3.1013,-3.1015,-3.1,-3.103,-3.1025,-3.1055,-3.1024,-3.1025,-3.1025,0,-3.0519,-3.0559,-3.0618,-3.0669,-3.0685,-3.0715,-3.076,-3.0793,-3.0836,-3.0853,-3.0885,-3.0904,-3.0946,-3.0941,-3.0998,-3.098,-3.1002,-3.1021,-3.1023,-3.1027,-3.102,-3.1034,-3.1065,-3.1069,-3.1033,-3.1032,-3.1032,0,-3.0519,-3.0588,-3.0633,-3.0654,-3.0714,-3.0734,-3.076,-3.0802,-3.0828,-3.0868,-3.0886,-3.093,-3.0953,-3.0987,-3.1018,-3.1011,-3.1072,-3.1069,-3.1087,-3.1086,-3.1097,-3.1096,-3.1131,-3.1113,-3.1113,-3.1113,-3.1113,0,-3.0548,-3.0583,-3.0634,-3.0661,-3.0701,-3.0735,-3.0774,-3.0802,-3.0839,-3.0872,-3.0896,-3.0927,-3.0966,-3.1002,-3.1026,-3.1069,-3.108,-3.1095,-3.1101,-3.1092,-3.109,-3.1106,-3.1105,-3.1114,-3.1114,-3.1114,-3.1113,0,-3.0555,-3.059,-3.064,-3.0693,-3.0708,-3.0735,-3.0781,-3.0808,-3.0836,-3.0877,-3.0889,-3.0932,-3.0976,-3.101,-3.1066,-3.1083,-3.1128,-3.1135,-3.1114,-3.1117,-3.1132,-3.113,-3.1178,-3.1186,-3.1163,-3.1163,-3.1163,0,-3.057,-3.0598,-3.0654,-3.0679,-3.0704,-3.0743,-3.077,-3.0805,-3.0832,-3.0884,-3.0905,-3.095,-3.0988,-3.1056,-3.1092,-3.1135,-3.1143,-3.1157,-3.1149,-3.114,-3.1142,-3.114,-3.1143,-3.1157,-3.1157,-3.1157,-3.1157,0,-3.0594,-3.061,-3.0648,-3.0693,-3.0725,-3.0762,-3.08,-3.0818,-3.086,-3.0889,-3.0934,-3.0963,-3.1022,-3.1066,-3.1113,-3.114,-3.1155,-3.116,-3.1166,-3.1157,-3.1143,-3.115,-3.1115,-3.1158,-3.1158,-3.1158,-3.1158,-3.1158,-3.0605,-3.0631,-3.0675,-3.0717,-3.0749,-3.0784,-3.0812,-3.0844,-3.0882,-3.0932,-3.0951,-3.0996,-3.1039,-3.1104,-3.1132,-3.1168,-3.1169,-3.1178,-3.118,-3.1182,-3.118,-3.1138,-3.1177,-3.1177,-3.1177,-3.1177,-3.1177,0,-3.0629,-3.0659,-3.0697,-3.0749,-3.0783,-3.0796,-3.0838,-3.0865,-3.0905,-3.0944,-3.0981,-3.1032,-3.1076,-3.1116,-3.1161,-3.1183,-3.1191,-3.1193,-3.1192,-3.1198,-3.1177,-3.1167,-3.1186,-3.1186,-3.1186,-3.1186,-3.1186,-3.1186,-3.0645,-3.069,-3.0712,-3.0773,-3.0802,-3.0848,-3.0871,-3.0903,-3.0934,-3.0991,-3.1027,-3.1053,-3.1093,-3.1141,-3.1182,-3.1193,-3.1208,-3.1208,-3.122,-3.12,-3.1199,-3.1198,-3.1188,-3.1211,-3.1211,-3.1238,-3.1238,-3.1238]},{"header":{"parameterUnit":"m.s-1","parameterCategory":1,"la1":30.2991,"la2":30.254,"lo1":-89.0895,"lo2":-89.0444,"dy":0.0017,"dx":0.0017,"nx":28,"ny":28,"refTime":"2025-04-05T09:00:00:Z","depth":0,"parameterNumber":3,"parameterNumberName":"V-component_of_WINDS"},"data":[0,0,0,0,0,0,0,0,0,0,0,0,0,0,0,0,0,0,0,0,0,0,0,0,0,0,0,0,0,0,0,0,0,0,0,0,0,0,0,0,0,0,0,0,0,0,0,0,0,0,0,0,0,0,0,0,0,0,7.339,7.3391,0,7.3488,7.3489,7.349,7.3462,7.346,7.3458,7.3456,7.3553,7.3558,7.3562,0,0,0,0,0,0,0,0,0,0,0,0,0,7.3178,7.3182,7.339,7.3391,7.3393,7.3488,7.3489,7.349,7.3462,7.346,7.3457,7.3455,7.3552,7.3557,7.3563,0,0,0,0,0,0,0,0,0,0,0,0,0,7.3272,7.3183,7.339,7.339,7.3391,7.3488,7.3489,7.3491,7.3463,7.346,7.3457,7.3454,7.355,7.3557,7.3563,7.3665,0,0,7.3584,7.3587,0,0,0,0,0,0,0,0,7.3267,7.328,7.3389,7.339,7.3391,7.346,7.345,7.3549,7.3463,7.3435,7.3456,7.3452,7.3524,7.3533,7.3558,7.367,7.3674,7.3584,7.3588,7.3591,7.3593,0,0,0,0,0,0,0,7.3261,7.3276,7.3429,7.339,7.3392,7.3385,7.3395,7.3469,7.3495,7.3438,7.3436,7.3448,7.3525,7.3552,7.356,7.3675,7.3584,7.359,7.3594,7.3597,7.3878,7.3881,0,0,0,0,0,0,7.3253,7.3271,7.3426,7.3432,7.3321,7.3391,7.3402,7.3441,7.3495,7.35,7.345,7.3446,7.3542,7.3552,7.3563,7.3688,7.3591,7.3598,7.3601,7.3875,7.3879,7.3883,0,0,0,0,0,0,7.3249,7.3267,7.3422,7.3351,7.337,7.3398,7.3441,7.3444,7.3471,7.3504,7.3509,7.3473,7.354,7.3554,7.3641,7.3691,7.3601,7.3607,7.3871,7.3876,7.3881,7.3937,0,0,0,0,0,0,7.3243,7.3266,7.3305,7.3352,7.3374,7.3498,7.3444,7.3448,7.3483,7.3479,7.3527,7.3532,7.3538,7.3631,7.3647,7.3698,7.3612,7.3866,7.3873,7.3879,7.393,7.3943,7.3954,0,0,0,0,0,7.3235,7.3316,7.3307,7.3326,7.3423,7.3501,7.3513,7.352,7.3487,7.3527,7.3549,7.353,7.3683,7.364,7.3658,7.3712,7.3863,7.3871,7.3879,7.3925,7.3941,7.3954,0,0,0,0,0,0,7.3272,7.3322,7.3313,7.341,7.3452,7.3496,7.3545,7.3535,7.3586,7.3579,7.3585,7.3596,7.3686,7.3707,7.3659,7.3815,7.3768,7.378,7.3797,7.3812,7.3824,7.3817,7.3617,0,0,0,0,0,7.3292,7.3351,7.3391,7.3473,7.3495,7.3517,7.3551,7.3553,7.3595,7.3612,7.364,7.3682,7.3739,7.3777,7.3831,7.3934,7.3945,7.398,7.3992,7.4001,7.4011,7.4069,7.4086,7.3908,7.3908,7.3908,0,0,7.3332,7.3367,7.3404,7.3482,7.3514,7.3576,7.3532,7.3598,7.3644,7.3622,7.3706,7.3729,7.3776,7.3871,7.3915,7.3892,7.4063,7.4011,7.4018,7.4023,7.4079,7.4096,7.4111,7.3913,7.3912,7.3912,0,0,7.3438,7.347,7.3543,7.3577,7.3627,7.3642,7.366,7.3706,7.3721,7.3806,7.3792,7.3846,7.3944,7.3979,7.401,7.4133,7.4119,7.415,7.4211,7.4268,7.4282,7.4294,7.434,7.4356,7.416,7.416,7.416,0,7.3482,7.3575,7.3582,7.3651,7.3686,7.3671,7.3746,7.3778,7.3843,7.3868,7.3842,7.3968,7.3998,7.4103,7.4133,7.4158,7.4179,7.4145,7.428,7.4292,7.4304,7.4347,7.4364,7.4164,7.4164,7.4163,7.4163,0,7.3628,7.3692,7.3745,7.3811,7.3852,7.3923,7.3941,7.3982,7.3981,7.3999,7.4087,7.4124,7.4186,7.4211,7.421,7.4317,7.4302,7.4278,7.4231,7.4324,7.4365,7.4382,7.4169,7.4168,7.4167,7.4166,0,0,7.3757,7.3828,7.3848,7.3878,7.3934,7.3984,7.4055,7.4118,7.4154,7.42,7.426,7.4346,7.4325,7.436,7.4362,7.4412,7.4509,7.4382,7.4383,7.4406,7.4632,7.465,7.4669,7.4501,7.4504,7.4506,7.4628,0,7.3869,7.3996,7.4005,7.4119,7.418,7.4168,7.4231,7.4272,7.4291,7.4345,7.4366,7.4427,7.4394,7.4415,7.4464,7.4487,7.4555,7.4478,7.4557,7.456,7.4547,7.469,7.4709,7.4822,7.4644,7.4647,7.4649,0,7.4016,7.4069,7.419,7.4239,7.4265,7.4321,7.4381,7.4433,7.448,7.449,7.4531,7.4528,7.4602,7.4553,7.4656,7.4604,7.4637,7.4653,7.4658,7.4666,7.461,7.4703,7.4858,7.4876,7.4674,7.4672,7.467,0,7.4101,7.4202,7.4288,7.4314,7.4374,7.4414,7.444,7.4484,7.4523,7.4575,7.46,7.4659,7.4692,7.4739,7.4752,7.4715,7.4856,7.4807,7.4867,7.4867,7.4897,7.4895,7.5061,7.4917,7.4917,7.4916,7.4916,0,7.4225,7.43,7.4327,7.438,7.4464,7.4475,7.4557,7.4581,7.4621,7.4679,7.4672,7.4726,7.474,7.4797,7.4808,7.4893,7.4907,7.4918,7.4921,7.492,7.4918,7.4941,7.4934,7.4921,7.492,7.4919,7.4918,0,7.4334,7.4355,7.4448,7.4498,7.4512,7.4572,7.4615,7.4666,7.4685,7.4758,7.4776,7.4805,7.4873,7.4891,7.4971,7.4978,7.5078,7.5073,7.5063,7.5063,7.5123,7.5117,7.531,7.5337,7.5174,7.5176,7.5177,0,7.4412,7.4469,7.4526,7.4565,7.4594,7.4656,7.4696,7.4709,7.4751,7.4811,7.4855,7.4922,7.4976,7.5084,7.5112,7.5174,7.517,7.5234,7.5179,7.5178,7.5173,7.517,7.5177,7.5244,7.5246,7.5247,7.5248,0,7.4549,7.4557,7.4615,7.4678,7.4726,7.4775,7.4823,7.4855,7.4875,7.4922,7.4992,7.5034,7.5117,7.5184,7.5247,7.5274,7.5266,7.5265,7.5283,7.5283,7.5275,7.5282,7.5092,7.5261,7.526,7.5259,7.5258,7.5257,7.4646,7.4697,7.4746,7.4812,7.4849,7.4894,7.4946,7.4972,7.5031,7.51,7.5105,7.5181,7.5228,7.5312,7.5344,7.5403,7.5384,7.5409,7.5416,7.5422,7.5428,7.5266,7.5415,7.5414,7.5414,7.5414,7.5414,0,7.4784,7.4815,7.4875,7.4943,7.4995,7.4984,7.5036,7.508,7.5148,7.5193,7.5247,7.5329,7.5394,7.5429,7.5494,7.5536,7.5533,7.5552,7.555,7.5557,7.544,7.5419,7.5553,7.5553,7.5553,7.5553,7.5553,7.5553,7.4862,7.4949,7.4964,7.507,7.5101,7.5177,7.5208,7.525,7.5287,7.5378,7.5433,7.5456,7.5498,7.5567,7.5627,7.5635,7.566,7.5682,7.5688,7.5579,7.5565,7.5551,7.5531,7.5687,7.5687,7.58,7.5801,7.5802]}]]